Time,TemperatureF,DewpointF,PressureIn,WindDirection,WindDirectionDegrees,WindSpeedMPH,WindSpeedGustMPH,Humidity,HourlyPrecipIn,Conditions,Clouds,dailyrainin,SoftwareType,DateUTC
2013-03-23 00:05:00,31.9,20.0,29.96,SW,221,2.0,-999.0,63,-99.99,,,0.00,weatherlink.com 1.10,2013-03-23 04:05:00,
2013-03-23 00:20:00,31.8,20.0,29.96,West,281,2.0,-999.0,63,-99.99,,,0.00,weatherlink.com 1.10,2013-03-23 04:20:00,
2013-03-23 00:35:00,31.7,20.0,29.96,West,275,3.0,-999.0,63,-99.99,,,0.00,weatherlink.com 1.10,2013-03-23 04:35:00,
2013-03-23 00:50:00,31.6,20.0,29.96,West,265,2.0,-999.0,63,-99.99,,,0.00,weatherlink.com 1.10,2013-03-23 04:50:00,
2013-03-23 01:05:00,31.5,20.0,29.96,WNW,298,4.0,-999.0,63,-99.99,,,0.00,weatherlink.com 1.10,2013-03-23 05:05:00,
2013-03-23 01:20:00,31.5,20.0,29.96,WNW,302,4.0,-999.0,62,-99.99,,,0.00,weatherlink.com 1.10,2013-03-23 05:20:00,
2013-03-23 01:35:00,31.5,20.0,29.96,NW,311,6.0,-999.0,62,-99.99,,,0.00,weatherlink.com 1.10,2013-03-23 05:35:00,
2013-03-23 01:50:00,31.4,20.0,29.97,West,259,3.0,-999.0,62,-99.99,,,0.00,weatherlink.com 1.10,2013-03-23 05:50:00,
2013-03-23 02:05:00,31.4,20.0,29.97,WNW,283,4.0,-999.0,63,-99.99,,,0.00,weatherlink.com 1.10,2013-03-23 06:05:00,
2013-03-23 02:20:00,31.3,20.0,29.96,NW,321,1.0,-999.0,63,-99.99,,,0.00,weatherlink.com 1.10,2013-03-23 06:20:00,
2013-03-23 02:35:00,31.2,20.0,29.96,West,259,7.0,-999.0,63,-99.99,,,0.00,weatherlink.com 1.10,2013-03-23 06:35:00,
2013-03-23 02:50:00,31.1,20.0,29.96,WNW,290,3.0,-999.0,64,-99.99,,,0.00,weatherlink.com 1.10,2013-03-23 06:50:00,
2013-03-23 03:05:00,31.0,20.0,29.95,WNW,284,4.0,-999.0,64,-99.99,,,0.00,weatherlink.com 1.10,2013-03-23 07:05:00,
2013-03-23 03:20:00,30.9,20.0,29.95,WNW,298,1.0,-999.0,65,-99.99,,,0.00,weatherlink.com 1.10,2013-03-23 07:20:00,
2013-03-23 03:35:00,30.9,21.0,29.95,SSW,213,2.0,-999.0,66,-99.99,,,0.00,weatherlink.com 1.10,2013-03-23 07:35:00,
2013-03-23 03:50:00,30.9,21.0,29.95,WSW,247,0.0,-999.0,66,-99.99,,,0.00,weatherlink.com 1.10,2013-03-23 07:50:00,
2013-03-23 04:05:00,30.8,21.0,29.95,WSW,242,3.0,-999.0,67,-99.99,,,0.00,weatherlink.com 1.10,2013-03-23 08:05:00,
2013-03-23 04:20:00,30.8,21.0,29.95,SW,228,0.0,-999.0,67,-99.99,,,0.00,weatherlink.com 1.10,2013-03-23 08:20:00,
2013-03-23 04:30:00,40.1,22.9,29.94,WSW,238,4.0,6.0,50,0.00,,,0.00,Wunderground v.1.15,2013-03-23 08:30:00,
2013-03-23 04:35:00,30.8,21.0,29.95,West,261,3.0,-999.0,67,-99.99,,,0.00,weatherlink.com 1.10,2013-03-23 08:35:00,
2013-03-23 04:40:00,40.6,22.9,29.93,WNW,282,5.0,5.0,49,0.00,,,0.00,Wunderground v.1.15,2013-03-23 08:40:00,
2013-03-23 04:45:00,41.4,22.7,29.93,West,269,6.0,8.0,47,0.00,,,0.00,Wunderground v.1.15,2013-03-23 08:45:00,
2013-03-23 04:50:00,30.8,21.0,29.95,West,273,1.0,-999.0,67,-99.99,,,0.00,weatherlink.com 1.10,2013-03-23 08:50:00,
2013-03-23 04:55:00,40.8,22.1,29.94,WSW,254,7.0,7.0,47,0.00,,,0.00,Wunderground v.1.15,2013-03-23 08:55:00,
2013-03-23 05:00:00,40.8,22.6,29.93,WNW,292,6.0,6.0,48,0.00,,,0.00,Wunderground v.1.15,2013-03-23 09:00:00,
2013-03-23 05:05:00,30.8,21.0,29.94,WSW,240,1.0,-999.0,67,-99.99,,,0.00,weatherlink.com 1.10,2013-03-23 09:05:00,
2013-03-23 05:10:00,40.9,22.2,29.93,SW,230,5.0,9.0,47,0.00,,,0.00,Wunderground v.1.15,2013-03-23 09:10:00,
2013-03-23 05:15:00,41.0,22.8,29.93,West,277,5.0,9.0,48,0.00,,,0.00,Wunderground v.1.15,2013-03-23 09:15:00,
2013-03-23 05:20:00,30.8,21.0,29.95,WSW,244,0.0,-999.0,68,-99.99,,,0.00,weatherlink.com 1.10,2013-03-23 09:20:00,
2013-03-23 05:25:00,41.7,22.9,29.93,WNW,290,4.0,6.0,47,0.00,,,0.00,Wunderground v.1.15,2013-03-23 09:25:00,
2013-03-23 05:30:00,41.6,22.3,29.93,WNW,285,5.0,5.0,46,0.00,,,0.00,Wunderground v.1.15,2013-03-23 09:30:00,
2013-03-23 05:35:00,30.8,21.0,29.95,WSW,251,3.0,-999.0,68,-99.99,,,0.00,weatherlink.com 1.10,2013-03-23 09:35:00,
2013-03-23 05:40:00,42.5,22.6,29.93,NW,304,6.0,6.0,45,0.00,,,0.00,Wunderground v.1.15,2013-03-23 09:40:00,
2013-03-23 05:45:00,43.1,23.7,29.93,West,261,5.0,6.0,46,0.00,,,0.00,Wunderground v.1.15,2013-03-23 09:45:00,
2013-03-23 05:50:00,43.2,23.3,29.93,West,271,5.0,5.0,45,0.00,,,0.00,Wunderground v.1.15,2013-03-23 09:50:00,
2013-03-23 05:55:00,43.3,22.8,29.93,WSW,248,7.0,8.0,44,0.00,,,0.00,Wunderground v.1.15,2013-03-23 09:55:00,
2013-03-23 06:00:00,43.7,22.6,29.93,WNW,292,7.0,7.0,43,0.00,,,0.00,Wunderground v.1.15,2013-03-23 10:00:00,
2013-03-23 06:05:00,30.8,22.0,29.95,SW,215,0.0,-999.0,69,-99.99,,,0.00,weatherlink.com 1.10,2013-03-23 10:05:00,
2013-03-23 06:21:00,30.8,21.0,29.95,WSW,238,0.0,-999.0,68,-99.99,,,0.00,weatherlink.com 1.10,2013-03-23 10:21:00,
2013-03-23 06:35:00,30.8,21.0,29.95,SW,232,3.0,-999.0,68,-99.99,,,0.00,weatherlink.com 1.10,2013-03-23 10:35:00,
2013-03-23 06:50:00,30.7,21.0,29.95,WNW,288,5.0,-999.0,68,-99.99,,,0.00,weatherlink.com 1.10,2013-03-23 10:50:00,
2013-03-23 07:05:00,30.6,21.0,29.95,West,263,1.0,-999.0,68,-99.99,,,0.00,weatherlink.com 1.10,2013-03-23 11:05:00,
2013-03-23 07:10:00,44.2,23.1,29.92,North,355,7.0,12.0,43,0.00,,,0.00,Wunderground v.1.15,2013-03-23 11:10:00,
2013-03-23 07:15:00,44.9,23.7,29.92,WSW,251,5.0,12.0,43,0.00,,,0.00,Wunderground v.1.15,2013-03-23 11:15:00,
2013-03-23 07:20:00,30.4,21.0,29.95,SW,217,0.0,-999.0,68,-99.99,,,0.00,weatherlink.com 1.10,2013-03-23 11:20:00,
2013-03-23 07:25:00,45.2,22.3,29.92,WNW,284,6.0,7.0,40,0.00,,,0.00,Wunderground v.1.15,2013-03-23 11:25:00,
2013-03-23 07:30:00,44.2,21.4,29.92,WSW,237,6.0,6.0,40,0.00,,,0.00,Wunderground v.1.15,2013-03-23 11:30:00,
2013-03-23 07:35:00,44.1,22.4,29.92,NNW,339,6.0,7.0,42,0.00,,,0.00,Wunderground v.1.15,2013-03-23 11:35:00,
2013-03-23 07:40:00,44.2,21.4,29.92,SW,225,7.0,7.0,40,0.00,,,0.00,Wunderground v.1.15,2013-03-23 11:40:00,
2013-03-23 07:45:00,43.9,21.7,29.92,WNW,291,7.0,7.0,41,0.00,,,0.00,Wunderground v.1.15,2013-03-23 11:45:00,
2013-03-23 07:50:00,29.3,21.0,29.96,SW,217,2.0,-999.0,70,-99.99,,,0.00,weatherlink.com 1.10,2013-03-23 11:50:00,
2013-03-23 07:55:00,43.9,21.1,29.92,WNW,300,7.0,10.0,40,0.00,,,0.00,Wunderground v.1.15,2013-03-23 11:55:00,
2013-03-23 08:00:00,43.4,21.2,29.92,West,268,6.0,6.0,41,0.00,,,0.00,Wunderground v.1.15,2013-03-23 12:00:00,
2013-03-23 08:05:00,29.3,21.0,29.96,SW,217,1.0,-999.0,71,-99.99,,,0.00,weatherlink.com 1.10,2013-03-23 12:05:00,
2013-03-23 08:10:00,43.7,22.1,29.92,West,273,5.0,5.0,42,0.00,,,0.00,Wunderground v.1.15,2013-03-23 12:10:00,
2013-03-23 08:15:00,43.6,20.8,29.92,WSW,253,5.0,6.0,40,0.00,,,0.00,Wunderground v.1.15,2013-03-23 12:15:00,
2013-03-23 08:20:00,30.1,21.0,29.96,SSW,208,0.0,-999.0,70,-99.99,,,0.00,weatherlink.com 1.10,2013-03-23 12:20:00,
2013-03-23 08:35:00,30.9,22.0,29.96,WSW,240,1.0,-999.0,69,-99.99,,,0.00,weatherlink.com 1.10,2013-03-23 12:35:00,
2013-03-23 08:50:00,31.6,22.0,29.96,NNW,332,6.0,-999.0,67,-99.99,,,0.00,weatherlink.com 1.10,2013-03-23 12:50:00,
2013-03-23 09:05:00,32.3,22.0,29.96,WNW,285,2.0,-999.0,66,-99.99,,,0.00,weatherlink.com 1.10,2013-03-23 13:05:00,
2013-03-23 09:21:00,33.2,23.0,29.96,WSW,246,2.0,-999.0,65,-99.99,,,0.00,weatherlink.com 1.10,2013-03-23 13:21:00,
2013-03-23 09:36:00,33.7,22.0,29.95,West,277,3.0,-999.0,63,-99.99,,,0.00,weatherlink.com 1.10,2013-03-23 13:36:00,
2013-03-23 09:51:00,34.3,22.0,29.95,SW,225,6.0,-999.0,62,-99.99,,,0.00,weatherlink.com 1.10,2013-03-23 13:51:00,
2013-03-23 10:06:00,35.3,23.0,29.95,West,279,3.0,-999.0,62,-99.99,,,0.00,weatherlink.com 1.10,2013-03-23 14:06:00,
2013-03-23 10:36:00,36.8,22.0,29.95,WNW,285,7.0,-999.0,56,-99.99,,,0.00,weatherlink.com 1.10,2013-03-23 14:36:00,
2013-03-23 11:06:00,38.4,22.0,29.96,WNW,291,5.0,-999.0,53,-99.99,,,0.00,weatherlink.com 1.10,2013-03-23 15:06:00,
2013-03-23 11:21:00,38.9,22.0,29.96,West,267,3.0,-999.0,52,-99.99,,,0.00,weatherlink.com 1.10,2013-03-23 15:21:00,
2013-03-23 11:36:00,38.6,23.0,29.96,West,271,3.0,-999.0,53,-99.99,,,0.00,weatherlink.com 1.10,2013-03-23 15:36:00,
2013-03-23 12:06:00,39.2,23.0,29.96,West,259,5.0,-999.0,52,-99.99,,,0.00,weatherlink.com 1.10,2013-03-23 16:06:00,
2013-03-23 12:20:00,36.3,19.4,29.98,WNW,300,2.0,2.0,50,0.00,,,0.00,Wunderground v.1.15,2013-03-23 16:20:00,
2013-03-23 12:21:00,39.5,23.0,29.95,WSW,240,7.0,-999.0,53,-99.99,,,0.00,weatherlink.com 1.10,2013-03-23 16:21:00,
2013-03-23 12:25:00,36.2,19.3,29.98,NNW,338,2.0,2.0,50,0.00,,,0.00,Wunderground v.1.15,2013-03-23 16:25:00,
2013-03-23 12:30:00,36.1,19.2,29.98,NW,321,1.0,1.0,50,0.00,,,0.00,Wunderground v.1.15,2013-03-23 16:30:00,
2013-03-23 12:35:00,36.0,19.6,29.99,NW,309,1.0,1.0,51,0.00,,,0.00,Wunderground v.1.15,2013-03-23 16:35:00,
2013-03-23 12:36:00,39.0,23.0,29.96,NW,306,4.0,-999.0,54,-99.99,,,0.00,weatherlink.com 1.10,2013-03-23 16:36:00,
2013-03-23 13:21:00,39.7,23.0,29.94,West,260,3.0,-999.0,51,-99.99,,,0.00,weatherlink.com 1.10,2013-03-23 17:21:00,
2013-03-23 13:37:00,40.1,22.0,29.94,WNW,292,5.0,-999.0,48,-99.99,,,0.00,weatherlink.com 1.10,2013-03-23 17:37:00,
2013-03-23 13:52:00,41.0,21.0,29.93,West,270,8.0,-999.0,46,-99.99,,,0.00,weatherlink.com 1.10,2013-03-23 17:52:00,
2013-03-23 14:07:00,41.0,22.0,29.93,NW,307,3.0,-999.0,47,-99.99,,,0.00,weatherlink.com 1.10,2013-03-23 18:07:00,
2013-03-23 14:22:00,41.7,23.0,29.93,West,265,2.0,-999.0,48,-99.99,,,0.00,weatherlink.com 1.10,2013-03-23 18:22:00,
2013-03-23 14:37:00,42.6,23.0,29.93,WNW,284,6.0,-999.0,46,-99.99,,,0.00,weatherlink.com 1.10,2013-03-23 18:37:00,
2013-03-23 14:52:00,43.1,22.0,29.93,WNW,292,5.0,-999.0,44,-99.99,,,0.00,weatherlink.com 1.10,2013-03-23 18:52:00,
2013-03-23 15:08:00,42.9,22.0,29.93,WSW,244,6.0,-999.0,44,-99.99,,,0.00,weatherlink.com 1.10,2013-03-23 19:08:00,
2013-03-23 15:22:00,43.9,22.0,29.92,West,276,9.0,-999.0,42,-99.99,,,0.00,weatherlink.com 1.10,2013-03-23 19:22:00,
2013-03-23 15:37:00,44.6,23.0,29.92,West,273,9.0,-999.0,42,-99.99,,,0.00,weatherlink.com 1.10,2013-03-23 19:37:00,
2013-03-23 15:52:00,44.3,22.0,29.92,NW,326,8.0,-999.0,41,-99.99,,,0.00,weatherlink.com 1.10,2013-03-23 19:52:00,
2013-03-23 16:07:00,44.0,22.0,29.92,West,260,5.0,-999.0,41,-99.99,,,0.00,weatherlink.com 1.10,2013-03-23 20:07:00,
2013-03-23 16:23:00,45.3,22.0,29.92,NNW,331,10.0,-999.0,40,-99.99,,,0.00,weatherlink.com 1.10,2013-03-23 20:23:00,
2013-03-23 16:38:00,44.3,22.0,29.92,West,267,8.0,-999.0,41,-99.99,,,0.00,weatherlink.com 1.10,2013-03-23 20:38:00,
2013-03-23 16:52:00,43.9,21.0,29.92,West,267,8.0,-999.0,40,-99.99,,,0.00,weatherlink.com 1.10,2013-03-23 20:52:00,
2013-03-23 17:07:00,43.5,22.0,29.92,WNW,298,2.0,-999.0,42,-99.99,,,0.00,weatherlink.com 1.10,2013-03-23 21:07:00,
2013-03-23 17:23:00,43.7,21.0,29.92,WNW,295,5.0,-999.0,41,-99.99,,,0.00,weatherlink.com 1.10,2013-03-23 21:23:00,
2013-03-23 17:38:00,44.0,22.0,29.92,NW,313,5.0,-999.0,41,-99.99,,,0.00,weatherlink.com 1.10,2013-03-23 21:38:00,
2013-03-23 17:53:00,44.3,22.0,29.92,ENE,67,1.0,-999.0,41,-99.99,,,0.00,weatherlink.com 1.10,2013-03-23 21:53:00,
2013-03-23 18:08:00,43.7,22.0,29.93,WNW,291,4.0,-999.0,42,-99.99,,,0.00,weatherlink.com 1.10,2013-03-23 22:08:00,
2013-03-23 18:23:00,43.3,21.0,29.94,WNW,302,0.0,-999.0,42,-99.99,,,0.00,weatherlink.com 1.10,2013-03-23 22:23:00,
2013-03-23 18:52:00,41.7,21.0,29.94,WNW,285,4.0,-999.0,43,-99.99,,,0.00,weatherlink.com 1.10,2013-03-23 22:52:00,
2013-03-23 19:07:00,40.6,21.0,29.95,WNW,287,2.0,-999.0,45,-99.99,,,0.00,weatherlink.com 1.10,2013-03-23 23:07:00,
2013-03-23 19:22:00,39.8,21.0,29.96,WNW,290,2.0,-999.0,47,-99.99,,,0.00,weatherlink.com 1.10,2013-03-23 23:22:00,
2013-03-23 19:37:00,39.2,20.0,29.96,NW,316,1.0,-999.0,47,-99.99,,,0.00,weatherlink.com 1.10,2013-03-23 23:37:00,
2013-03-23 19:52:00,38.6,20.0,29.97,West,264,3.0,-999.0,48,-99.99,,,0.00,weatherlink.com 1.10,2013-03-23 23:52:00,
2013-03-23 20:07:00,38.1,20.0,29.97,WNW,297,5.0,-999.0,49,-99.99,,,0.00,weatherlink.com 1.10,2013-03-24 00:07:00,
2013-03-23 20:22:00,37.8,20.0,29.97,WNW,290,3.0,-999.0,49,-99.99,,,0.00,weatherlink.com 1.10,2013-03-24 00:22:00,
2013-03-23 20:37:00,37.3,20.0,29.97,NW,313,2.0,-999.0,50,-99.99,,,0.00,weatherlink.com 1.10,2013-03-24 00:37:00,
2013-03-23 20:52:00,36.9,20.0,29.97,NNW,331,5.0,-999.0,50,-99.99,,,0.00,weatherlink.com 1.10,2013-03-24 00:52:00,
2013-03-23 21:07:00,36.6,19.0,29.98,NNW,339,1.0,-999.0,50,-99.99,,,0.00,weatherlink.com 1.10,2013-03-24 01:07:00,
2013-03-23 21:23:00,36.2,19.0,29.98,NW,326,0.0,-999.0,50,-99.99,,,0.00,weatherlink.com 1.10,2013-03-24 01:23:00,
2013-03-23 21:40:00,35.9,19.0,29.98,NW,309,0.0,-999.0,51,-99.99,,,0.00,weatherlink.com 1.10,2013-03-24 01:40:00,
2013-03-23 21:53:00,35.6,19.0,29.99,SW,215,0.0,-999.0,51,-99.99,,,0.00,weatherlink.com 1.10,2013-03-24 01:53:00,
2013-03-23 22:08:00,35.2,19.0,30.00,West,259,2.0,-999.0,52,-99.99,,,0.00,weatherlink.com 1.10,2013-03-24 02:08:00,
2013-03-23 22:23:00,34.7,19.0,30.00,WSW,256,0.0,-999.0,53,-99.99,,,0.00,weatherlink.com 1.10,2013-03-24 02:23:00,
2013-03-23 22:38:00,33.9,19.0,30.00,WSW,256,0.0,-999.0,55,-99.99,,,0.00,weatherlink.com 1.10,2013-03-24 02:38:00,
2013-03-23 22:53:00,32.4,19.0,29.99,WSW,256,0.0,-999.0,59,-99.99,,,0.00,weatherlink.com 1.10,2013-03-24 02:53:00,
2013-03-23 23:08:00,31.1,19.0,29.98,WSW,256,0.0,-999.0,61,-99.99,,,0.00,weatherlink.com 1.10,2013-03-24 03:08:00,
2013-03-23 23:23:00,29.8,19.0,29.98,WSW,256,0.0,-999.0,65,-99.99,,,0.00,weatherlink.com 1.10,2013-03-24 03:23:00,
2013-03-23 23:40:00,28.7,19.0,29.98,WSW,256,0.0,-999.0,68,-99.99,,,0.00,weatherlink.com 1.10,2013-03-24 03:40:00,
2013-03-23 23:53:00,28.0,19.0,29.99,WSW,256,0.0,-999.0,70,-99.99,,,0.00,weatherlink.com 1.10,2013-03-24 03:53:00,